Weather Roundup
Issued by NWS

Home | Current Version | Previous Version | Text Only | Print | Product List | Glossary On
Versions: 1 2 3 4 5 6 7 8 9 10 11 12 13 14 15 16 17 18 19 20 21 22 23 24 25 26 27 28 29 30 31 32 33 34 35 36 37 38 39 40 41 42 43 44 45 46 47 48 49 50
639
NZUS93 KARX 241610
HRRWXR

CURRENT HOURLY OBSERVATIONS ACROSS
MUCH OF THE UPPER MISSISSIPPI VALLEY
NATIONAL WEATHER SERVICE LA CROSSE WI
1100 AM CDT MON JUL 24 2017


...SOUTHEAST MINNESOTA...


CITY           SKY/WX    TMP DP  RH WIND       PRES   REMARKS
ROCHESTER      CLOUDY    68  60  75 NE6       30.09S
ROCHESTER/MAYO CLOUDY    69  58  68 SE3       30.09R
WINONA         CLOUDY    63  55  77 SE6       30.10S
AUSTIN         PTSUNNY   68  59  73 E5        30.07S
ALBERT LEA     CLOUDY    68  59  73 CALM      30.07S
DODGE CENTER   PTSUNNY   66  57  72 CALM      30.08S
PRESTON        CLOUDY    66  56  70 CALM      30.09S
OWATONNA       PTSUNNY   70  61  73 CALM      30.07F
FARIBAULT      CLOUDY    68  59  73 SE5       30.08S
$$

...ELSEWHERE IN MINNESOTA...


CITY           SKY/WX    TMP DP  RH WIND       PRES   REMARKS
MINNEAPOLIS    MOSUNNY   71  58  63 SE5       30.07S
INTNL FALLS    SUNNY     73  55  53 SW7       30.05F
DULUTH         SUNNY     66  53  63 S7        30.09F
RED WING       SUNNY     72  55  56 SE7       30.06S
REDWOOD FALLS  CLOUDY    71  60  68 S8        30.04F
MANKATO        CLOUDY    68  59  73 SW3       30.07S
WORTHINGTON    SUNNY     72  62  71 S8        30.06F
FAIRMONT       MOSUNNY   69  61  75 MISG      30.07S
$$

...SOUTHWEST WISCONSIN...


CITY           SKY/WX    TMP DP  RH WIND       PRES   REMARKS
LA CROSSE      CLOUDY    67  57  70 SE6       30.09R
PRAIRIE DU CHI CLOUDY    67  56  67 NE3       30.07S
BOSCOBEL       CLOUDY    70  58  65 NE5       30.08R
LONE ROCK      CLOUDY    67  57  70 E7        30.08R
PLATTEVILLE    CLOUDY    68  61  77 E7        30.08S
FORT MC COY    CLOUDY    65  56  73 SE5       30.10S
CAMP DOUGLAS   CLOUDY    64  57  77 SE7       30.10R
MAUSTON-NEW LI CLOUDY    66  57  72 CALM      30.10R
VIROQUA        CLOUDY    64  58  82 CALM      30.10R
WIS DELLS      CLOUDY    66  54  66 E5        30.09S
$$

...ELSEWHERE IN WISCONSIN...


CITY           SKY/WX    TMP DP  RH WIND       PRES   REMARKS
MILWAUKEE      PTSUNNY   69  59  70 N15G24    30.06R
MADISON        PTSUNNY   66  57  72 NE8       30.08R
GREEN BAY      MOSUNNY   68  59  73 N12       30.10R
EAU CLAIRE     CLOUDY    62  55  77 E7        30.09F
BLACK RVR FLS  CLOUDY    66  53  63 E7        30.09S
MEDFORD        SUNNY     65  54  68 E7        30.11S
WAUSAU         SUNNY     67  53  61 E8        30.09S
WIS RAPIDS     PTSUNNY   69  56  62 SE7       30.11R
MARSHFIELD     PTSUNNY   68  55  63 E7        30.10S
RICE LAKE      PTSUNNY   63  55  76 E5        30.12F
$$

...NORTHEAST IOWA...


CITY           SKY/WX    TMP DP  RH WIND       PRES   REMARKS
WATERLOO       CLOUDY    69  63  81 NE5       30.05S
DUBUQUE        CLOUDY    68  59  73 E5        30.07S
DECORAH        CLOUDY    63  57  82 E6        30.08S
MASON CITY     PTSUNNY   69  59  70 CALM      30.08S
CHARLES CITY   PTSUNNY   70  63  78 VRB6      30.07S
OELWEIN          N/A    N/A N/A N/A MISG        N/A
$$

...ELSEWHERE IN IOWA...


CITY           SKY/WX    TMP DP  RH WIND       PRES   REMARKS
DES MOINES     MOSUNNY   77  59  53 N7        30.03F
IOWA CITY      CLOUDY    72  65  78 NE8       30.06R
FORT DODGE     SUNNY     72  61  68 NE6       30.07S
MARSHALLTOWN   CLOUDY    72  64  76 NE6       30.05S
CEDAR RAPIDS   CLOUDY    70  65  84 E7        30.05R
$$

...NORTHERN ILLINOIS...


CITY           SKY/WX    TMP DP  RH WIND       PRES   REMARKS
CHICAGO-OHARE  CLOUDY    71  57  61 NE15      30.03R
CHICAGO-MIDWAY CLOUDY    71  60  68 N15       30.02R
MOLINE         CLOUDY    70  63  78 E9        30.04R
ROCKFORD       CLOUDY    72  59  63 E7        30.06R
PEORIA         CLOUDY    71  65  81 NE7       30.03R
$$

NOTE: "FAIR" INDICATES FEW OR NO CLOUDS BELOW 12,000 FEET WITH NO
SIGNIFICANT WEATHER AND/OR OBSTRUCTIONS TO VISIBILITY. WIND
SPEEDS ARE IN MILES-PER-HOUR.




USA.gov is the U.S. government's official web portal to all federal, state and local government web resources and services.